Location: Oakhurst
(33.6448°N, 111.9543°W)
Time: 00:27:08
(UTC+00:00)

FO-99 - Pass Details

Date: 02 August 2021
Orbit: 471 x 503 km, 97.2° (Epoch: 24 September)

Event Time Altitude Azimuth Distance (km) Brightness Sun altitude
Exits shadow 03:54:33 - 194° (SSW) 2,003 ? -16.7°
Reaches altitude 10° 03:55:20 10° 199° (SSW) 1,709 ? -16.8°
Maximum altitude 03:58:37 31° 263° (W) 913 ? -17.4°
Drops below altitude 10° 04:01:56 10° 326° (NW) 1,721 ? -17.9°
Sets 04:04:12 0° 337° (NNW) 2,608 ? -18.3°
